Flag for U.S.A. Weather past 2 weeks in Charlotte, North Carolina, U.S.A.

Now
80 °F

Mostly cloudy.


Feels Like: 83 °F
Forecast: 69 / 83 °F
Wind: 6 mph from North

Location: Charlotte / Douglas International Airport

Current Time: Jul 22, 2014 at 6:12:00 PM

Latest Report: Jul 22, 2014 at 12:52 PM


Visibility: 10 mi

Pressure: 30.14 "Hg

Humidity: 71%

Dew point: 70 °F

Location of CharlotteLocation

Historic Weather in Charlotte — Graph

°F

Charlotte temperature yesterday

Maximum temperature yesterday: 76 °F (at 3:52 PM)
Minimum temperature yesterday: 70 °F (at 11:52 AM)
Average temperature yesterday: 74 °F

Past Weeks' High & Low Weather Summary

 TemperatureHumidityPressure
High94 °F (Jul 14, 3:52 PM)94% (Jul 21, 8:52 AM)30.22 "Hg (Jul 21, 8:52 AM)
Low63 °F (Jul 17, 5:52 AM)30% (Jul 12, 4:52 PM)29.73 "Hg (Jul 15, 3:52 PM)
Average77 °F68%30.04 "Hg
* Reported Jul 7 12:52 PM — Jul 22 12:52 PM, Charlotte, Weather by CustomWeather, © 2014

Note: Actual official high and low records may vary slightly from our data, if they occured in-between our weather recording intervals... More about our weather records

Advertising

Charlotte weather history for previous 24 hours

 ConditionsComfort  
Time TempWeatherWind HumidityBarometerVisibility
12:52 PM
Jul 22
80 °FMostly cloudy.6 mph71%30.14 "Hg10 mi
11:52 AM77 °FOvercast.3 mph79%30.15 "Hg10 mi
10:52 AM76 °FLow clouds.7 mph82%30.16 "Hg10 mi
9:52 AM74 °FLow clouds.5 mph85%30.16 "Hg10 mi
8:52 AM73 °FLow clouds.6 mph88%30.16 "Hg10 mi
7:52 AM72 °FLow clouds.3 mph91%30.14 "Hg10 mi
6:52 AM72 °FLow clouds.3 mph91%30.12 "Hg10 mi
5:52 AM72 °FLight rain. Low clouds.No wind91%30.11 "Hg10 mi
4:52 AM72 °FLow clouds.6 mph87%30.10 "Hg10 mi
3:52 AM72 °FOvercast.6 mph87%30.10 "Hg10 mi
2:52 AM72 °FMostly cloudy.6 mph87%30.11 "Hg10 mi
1:52 AM73 °FLow clouds.5 mph84%30.13 "Hg10 mi
12:52 AM73 °FOvercast.7 mph84%30.12 "Hg10 mi
11:52 PM
Jul 21
73 °FOvercast.6 mph88%30.13 "Hg10 mi
10:52 PM74 °FMostly cloudy.5 mph85%30.13 "Hg10 mi
9:52 PM74 °FMostly cloudy.7 mph85%30.13 "Hg10 mi
8:52 PM75 °FMostly cloudy.7 mph82%30.12 "Hg10 mi
7:52 PM75 °FCloudy.7 mph82%30.11 "Hg10 mi
6:52 PM76 °FMostly cloudy.9 mph80%30.09 "Hg10 mi
Weather by CustomWeather, © 2014

See weather overviewHow to use our weather pages